Location: Castillon
(43.0896°N, 0.2156°E)
Time: 17:32:39
(UTC+00:00)

Cosmos 1340 - Pass Details

Date: 16 June 2021
Orbit: 498 x 504 km, 81.2° (Epoch: 02 August)

Event Time Altitude Azimuth Distance (km) Brightness Sun altitude
Exits shadow 22:26:33 30° 231° (SW) 914 3.8 -20.1°
Maximum altitude 22:27:56 45° 283° (WNW) 693 3.5 -20.2°
Drops below altitude 10° 22:31:35 10° 358° (N) 1,724 6.4 -20.5°
Sets 22:33:47 0° 5° (N) 2,615 7.4 -20.6°
